Time,TemperatureF,DewpointF,PressureIn,WindDirection,WindDirectionDegrees,WindSpeedMPH,WindSpeedGustMPH,Humidity,HourlyPrecipIn,Conditions,Clouds,dailyrainin,SoftwareType,DateUTC
2013-03-29 00:02:00,41.4,27.7,30.09,South,180,0.0,0.0,58,0.00,,,0.00,meteohub,2013-03-29 04:02:00,
2013-03-29 00:12:00,41.2,27.5,30.09,South,180,0.0,0.0,58,0.00,,,0.00,meteohub,2013-03-29 04:12:00,
2013-03-29 00:17:00,41.2,27.5,30.09,South,180,2.0,0.0,58,0.00,,,0.00,meteohub,2013-03-29 04:17:00,
2013-03-29 00:22:00,41.2,27.5,30.09,SSE,158,0.0,2.0,58,0.00,,,0.00,meteohub,2013-03-29 04:22:00,
2013-03-29 00:32:00,41.0,27.3,30.09,SSW,202,2.0,2.0,58,0.00,,,0.00,meteohub,2013-03-29 04:32:00,
2013-03-29 00:42:00,41.0,27.3,30.09,SW,225,1.0,2.0,58,0.00,,,0.00,meteohub,2013-03-29 04:42:00,
2013-03-29 00:47:00,41.0,27.3,30.09,SSW,202,1.0,2.0,58,0.00,,,0.00,meteohub,2013-03-29 04:47:00,
2013-03-29 00:52:00,41.0,27.3,30.09,SW,225,2.0,2.0,58,0.00,,,0.00,meteohub,2013-03-29 04:52:00,
2013-03-29 01:02:00,41.0,27.3,30.09,SSW,202,0.0,2.0,58,0.00,,,0.00,meteohub,2013-03-29 05:02:00,
2013-03-29 01:12:00,41.0,27.3,30.09,South,180,0.0,0.0,58,0.00,,,0.00,meteohub,2013-03-29 05:12:00,
2013-03-29 01:17:00,41.0,27.3,30.09,NW,315,0.0,2.0,58,0.00,,,0.00,meteohub,2013-03-29 05:17:00,
2013-03-29 01:22:00,40.8,27.1,30.12,North,0,0.0,2.0,58,0.00,,,0.00,meteohub,2013-03-29 05:22:00,
2013-03-29 01:27:00,40.6,27.1,30.12,East,90,0.0,2.0,58,0.00,,,0.00,meteohub,2013-03-29 05:27:00,
2013-03-29 01:32:00,40.5,27.0,30.12,SE,135,0.0,2.0,58,0.00,,,0.00,meteohub,2013-03-29 05:32:00,
2013-03-29 01:37:00,40.3,27.1,30.12,SE,135,0.0,2.0,59,0.00,,,0.00,meteohub,2013-03-29 05:37:00,
2013-03-29 01:42:00,39.9,26.4,30.12,ESE,112,0.0,2.0,58,0.00,,,0.00,meteohub,2013-03-29 05:42:00,
2013-03-29 01:52:00,39.6,26.4,30.12,SSE,158,0.0,0.0,59,0.00,,,0.00,meteohub,2013-03-29 05:52:00,
2013-03-29 01:57:00,39.4,26.2,30.12,SSE,158,0.0,0.0,59,0.00,,,0.00,meteohub,2013-03-29 05:57:00,
2013-03-29 02:02:00,39.2,26.1,30.12,SE,135,0.0,0.0,59,0.00,,,0.00,meteohub,2013-03-29 06:02:00,
2013-03-29 02:07:00,39.0,26.4,30.12,ESE,112,1.0,0.0,60,0.00,,,0.00,meteohub,2013-03-29 06:07:00,
2013-03-29 02:12:00,38.8,26.2,30.12,ESE,112,1.0,2.0,60,0.00,,,0.00,meteohub,2013-03-29 06:12:00,
2013-03-29 02:22:00,38.3,26.4,30.12,SE,135,0.0,2.0,62,0.00,,,0.00,meteohub,2013-03-29 06:22:00,
2013-03-29 02:27:00,37.9,26.1,30.12,SE,135,1.0,2.0,62,0.00,,,0.00,meteohub,2013-03-29 06:27:00,
2013-03-29 02:37:00,37.6,26.2,30.09,ESE,112,0.0,2.0,63,0.00,,,0.00,meteohub,2013-03-29 06:37:00,
2013-03-29 02:47:00,37.2,26.2,30.09,SSE,158,0.0,3.0,64,0.00,,,0.00,meteohub,2013-03-29 06:47:00,
2013-03-29 02:52:00,37.0,26.1,30.12,SE,135,2.0,3.0,64,0.00,,,0.00,meteohub,2013-03-29 06:52:00,
2013-03-29 03:02:00,36.9,25.9,30.12,SSE,158,0.0,2.0,64,0.00,,,0.00,meteohub,2013-03-29 07:02:00,
2013-03-29 03:07:00,36.9,25.9,30.12,SSE,158,0.0,2.0,64,0.00,,,0.00,meteohub,2013-03-29 07:07:00,
2013-03-29 03:17:00,37.0,26.1,30.12,South,180,1.0,2.0,64,0.00,,,0.00,meteohub,2013-03-29 07:17:00,
2013-03-29 03:22:00,37.2,26.2,30.09,South,180,1.0,2.0,64,0.00,,,0.00,meteohub,2013-03-29 07:22:00,
2013-03-29 03:27:00,37.2,26.2,30.09,SE,135,0.0,2.0,64,0.00,,,0.00,meteohub,2013-03-29 07:27:00,
2013-03-29 03:32:00,37.0,26.1,30.09,SSE,158,0.0,2.0,64,0.00,,,0.00,meteohub,2013-03-29 07:32:00,
2013-03-29 03:42:00,36.7,26.1,30.09,SE,135,2.0,2.0,65,0.00,,,0.00,meteohub,2013-03-29 07:42:00,
2013-03-29 03:47:00,36.5,25.9,30.09,South,180,2.0,3.0,65,0.00,,,0.00,meteohub,2013-03-29 07:47:00,
2013-03-29 03:52:00,36.3,25.7,30.09,SSE,158,1.0,3.0,65,0.00,,,0.00,meteohub,2013-03-29 07:52:00,
2013-03-29 04:02:00,36.3,26.1,30.09,SSE,158,2.0,2.0,66,0.00,,,0.00,meteohub,2013-03-29 08:02:00,
2013-03-29 04:07:00,36.3,26.1,30.09,SSE,158,2.0,3.0,66,0.00,,,0.00,meteohub,2013-03-29 08:07:00,
2013-03-29 04:12:00,36.5,26.2,30.09,SE,135,0.0,3.0,66,0.00,,,0.00,meteohub,2013-03-29 08:12:00,
2013-03-29 04:22:00,35.4,25.5,30.12,South,180,0.0,3.0,67,0.00,,,0.00,meteohub,2013-03-29 08:22:00,
2013-03-29 04:27:00,34.9,25.3,30.12,SSE,158,2.0,2.0,68,0.00,,,0.00,meteohub,2013-03-29 08:27:00,
2013-03-29 04:32:00,34.9,25.3,30.12,SW,225,0.0,2.0,68,0.00,,,0.00,meteohub,2013-03-29 08:32:00,
2013-03-29 04:37:00,35.1,25.9,30.09,SE,135,1.0,2.0,69,0.00,,,0.00,meteohub,2013-03-29 08:37:00,
2013-03-29 04:42:00,35.2,26.1,30.09,SSE,158,2.0,2.0,69,0.00,,,0.00,meteohub,2013-03-29 08:42:00,
2013-03-29 04:47:00,35.4,26.2,30.09,SE,135,2.0,2.0,69,0.00,,,0.00,meteohub,2013-03-29 08:47:00,
2013-03-29 04:52:00,35.4,26.2,30.09,SSE,158,2.0,3.0,69,0.00,,,0.00,meteohub,2013-03-29 08:52:00,
2013-03-29 04:57:00,35.4,26.2,30.09,SSE,158,1.0,3.0,69,0.00,,,0.00,meteohub,2013-03-29 08:57:00,
2013-03-29 05:07:00,34.9,26.1,30.09,SE,135,1.0,2.0,70,0.00,,,0.00,meteohub,2013-03-29 09:07:00,
2013-03-29 05:17:00,35.1,26.2,30.09,South,180,0.0,2.0,70,0.00,,,0.00,meteohub,2013-03-29 09:17:00,
2013-03-29 05:22:00,35.1,26.2,30.09,SSW,202,0.0,2.0,70,0.00,,,0.00,meteohub,2013-03-29 09:22:00,
2013-03-29 05:32:00,35.1,26.6,30.09,SSW,202,1.0,2.0,71,0.00,,,0.00,meteohub,2013-03-29 09:32:00,
2013-03-29 05:37:00,35.4,27.0,30.09,SSE,158,3.0,3.0,71,0.00,,,0.00,meteohub,2013-03-29 09:37:00,
2013-03-29 05:42:00,35.4,27.0,30.09,WSW,248,1.0,3.0,71,0.00,,,0.00,meteohub,2013-03-29 09:42:00,
2013-03-29 05:47:00,35.6,27.1,30.09,SE,135,2.0,3.0,71,0.00,,,0.00,meteohub,2013-03-29 09:47:00,
2013-03-29 05:52:00,35.8,27.3,30.12,SSE,158,2.0,3.0,71,0.00,,,0.00,meteohub,2013-03-29 09:52:00,
2013-03-29 05:57:00,35.8,27.3,30.12,SSE,158,1.0,3.0,71,0.00,,,0.00,meteohub,2013-03-29 09:57:00,
2013-03-29 06:02:00,35.8,27.3,30.12,SE,135,2.0,3.0,71,0.00,,,0.00,meteohub,2013-03-29 10:02:00,
2013-03-29 06:07:00,36.0,27.5,30.09,SSE,158,2.0,3.0,71,0.00,,,0.00,meteohub,2013-03-29 10:07:00,
2013-03-29 06:12:00,36.1,27.7,30.09,South,180,2.0,3.0,71,0.00,,,0.00,meteohub,2013-03-29 10:12:00,
2013-03-29 06:17:00,36.1,27.7,30.09,SSE,158,0.0,3.0,71,0.00,,,0.00,meteohub,2013-03-29 10:17:00,
2013-03-29 06:27:00,36.1,27.7,30.09,SSE,158,1.0,2.0,71,0.00,,,0.00,meteohub,2013-03-29 10:27:00,
2013-03-29 06:32:00,36.1,27.7,30.09,SSE,158,2.0,3.0,71,0.00,,,0.00,meteohub,2013-03-29 10:32:00,
2013-03-29 06:37:00,36.1,27.7,30.12,SSE,158,2.0,3.0,71,0.00,,,0.00,meteohub,2013-03-29 10:37:00,
2013-03-29 06:42:00,36.1,27.7,30.12,South,180,2.0,3.0,71,0.00,,,0.00,meteohub,2013-03-29 10:42:00,
2013-03-29 06:47:00,36.1,27.7,30.12,SSE,158,2.0,3.0,71,0.00,,,0.00,meteohub,2013-03-29 10:47:00,
2013-03-29 06:52:00,36.1,27.7,30.09,SE,135,1.0,3.0,71,0.00,,,0.00,meteohub,2013-03-29 10:52:00,
2013-03-29 06:57:00,36.1,27.7,30.09,SSE,158,0.0,3.0,71,0.00,,,0.00,meteohub,2013-03-29 10:57:00,
2013-03-29 07:02:00,36.1,27.7,30.09,SSE,158,2.0,3.0,71,0.00,,,0.00,meteohub,2013-03-29 11:02:00,
2013-03-29 07:07:00,36.1,27.7,30.12,SE,135,1.0,2.0,71,0.00,,,0.00,meteohub,2013-03-29 11:07:00,
2013-03-29 07:17:00,36.3,27.9,30.12,SSE,158,0.0,3.0,71,0.00,,,0.00,meteohub,2013-03-29 11:17:00,
2013-03-29 07:22:00,36.3,27.9,30.12,South,180,2.0,3.0,71,0.00,,,0.00,meteohub,2013-03-29 11:22:00,
2013-03-29 07:27:00,36.7,28.2,30.12,SE,135,0.0,3.0,71,0.00,,,0.00,meteohub,2013-03-29 11:27:00,
2013-03-29 07:37:00,37.0,28.6,30.12,South,180,0.0,3.0,71,0.00,,,0.00,meteohub,2013-03-29 11:37:00,
2013-03-29 07:42:00,37.4,28.9,30.12,SSW,202,0.0,3.0,71,0.00,,,0.00,meteohub,2013-03-29 11:42:00,
2013-03-29 07:57:00,38.5,29.7,30.12,SSW,202,0.0,2.0,70,0.00,,,0.00,meteohub,2013-03-29 11:57:00,
2013-03-29 08:02:00,38.8,29.8,30.12,North,0,2.0,2.0,70,0.00,,,0.00,meteohub,2013-03-29 12:02:00,
2013-03-29 08:12:00,40.1,30.7,30.14,NNW,338,2.0,3.0,69,0.00,,,0.00,meteohub,2013-03-29 12:12:00,
2013-03-29 08:17:00,40.8,31.1,30.14,North,0,3.0,3.0,68,0.00,,,0.00,meteohub,2013-03-29 12:17:00,
2013-03-29 08:27:00,41.9,31.5,30.12,NNW,338,1.0,4.0,66,0.00,,,0.00,meteohub,2013-03-29 12:27:00,
2013-03-29 08:37:00,43.0,30.9,30.12,NNW,338,2.0,4.0,62,0.00,,,0.00,meteohub,2013-03-29 12:37:00,
2013-03-29 08:47:00,44.6,30.7,30.12,NW,315,0.0,4.0,58,0.00,,,0.00,meteohub,2013-03-29 12:47:00,
2013-03-29 08:52:00,44.8,29.7,30.12,NNE,22,0.0,6.0,55,0.00,,,0.00,meteohub,2013-03-29 12:52:00,
2013-03-29 09:02:00,46.2,30.9,30.12,NNE,22,3.0,8.0,55,0.00,,,0.00,meteohub,2013-03-29 13:02:00,
2013-03-29 09:07:00,46.6,30.9,30.12,NW,315,2.0,8.0,54,0.00,,,0.00,meteohub,2013-03-29 13:07:00,
2013-03-29 09:12:00,47.3,30.6,30.12,NNW,338,2.0,8.0,52,0.00,,,0.00,meteohub,2013-03-29 13:12:00,
2013-03-29 09:17:00,47.3,30.2,30.12,North,0,1.0,6.0,51,0.00,,,0.00,meteohub,2013-03-29 13:17:00,
2013-03-29 09:27:00,47.8,29.7,30.09,WNW,292,3.0,6.0,49,0.00,,,0.00,meteohub,2013-03-29 13:27:00,
2013-03-29 09:32:00,48.4,30.2,30.09,NNW,338,3.0,5.0,49,0.00,,,0.00,meteohub,2013-03-29 13:32:00,
2013-03-29 09:37:00,48.4,30.2,30.12,NW,315,2.0,5.0,49,0.00,,,0.00,meteohub,2013-03-29 13:37:00,
2013-03-29 09:42:00,48.6,30.4,30.12,WNW,292,4.0,5.0,49,0.00,,,0.00,meteohub,2013-03-29 13:42:00,
2013-03-29 09:52:00,48.4,29.7,30.12,WNW,292,2.0,5.0,48,0.00,,,0.00,meteohub,2013-03-29 13:52:00,
2013-03-29 09:57:00,48.4,29.7,30.12,WNW,292,4.0,5.0,48,0.00,,,0.00,meteohub,2013-03-29 13:57:00,
2013-03-29 10:02:00,48.4,29.7,30.12,North,0,3.0,5.0,48,0.00,,,0.00,meteohub,2013-03-29 14:02:00,
2013-03-29 10:07:00,48.2,29.5,30.09,NNW,338,4.0,6.0,48,0.00,,,0.00,meteohub,2013-03-29 14:07:00,
2013-03-29 10:12:00,48.2,29.5,30.09,NNW,338,4.0,6.0,48,0.00,,,0.00,meteohub,2013-03-29 14:12:00,
2013-03-29 10:22:00,48.2,28.9,30.12,NNW,338,1.0,6.0,47,0.00,,,0.00,meteohub,2013-03-29 14:22:00,
2013-03-29 10:32:00,48.7,29.5,30.12,NNW,338,3.0,7.0,47,0.00,,,0.00,meteohub,2013-03-29 14:32:00,
2013-03-29 10:37:00,48.7,29.5,30.09,North,0,4.0,6.0,47,0.00,,,0.00,meteohub,2013-03-29 14:37:00,
2013-03-29 10:42:00,48.7,29.5,30.09,North,0,4.0,6.0,47,0.00,,,0.00,meteohub,2013-03-29 14:42:00,
2013-03-29 10:47:00,48.9,29.7,30.09,WSW,248,2.0,5.0,47,0.00,,,0.00,meteohub,2013-03-29 14:47:00,
2013-03-29 10:52:00,49.5,30.0,30.09,NNW,338,2.0,5.0,47,0.00,,,0.00,meteohub,2013-03-29 14:52:00,
2013-03-29 10:57:00,49.8,30.4,30.09,WNW,292,4.0,5.0,47,0.00,,,0.00,meteohub,2013-03-29 14:57:00,
2013-03-29 11:02:00,50.0,30.6,30.09,North,0,5.0,5.0,47,0.00,,,0.00,meteohub,2013-03-29 15:02:00,
2013-03-29 11:07:00,50.0,30.0,30.12,NW,315,2.0,5.0,46,0.00,,,0.00,meteohub,2013-03-29 15:07:00,
2013-03-29 11:17:00,50.4,30.4,30.12,NNW,338,3.0,5.0,46,0.00,,,0.00,meteohub,2013-03-29 15:17:00,
2013-03-29 11:27:00,50.7,29.1,30.09,WNW,292,2.0,5.0,43,0.00,,,0.00,meteohub,2013-03-29 15:27:00,
2013-03-29 11:37:00,52.0,30.7,30.12,WNW,292,1.0,6.0,44,0.00,,,0.00,meteohub,2013-03-29 15:37:00,
2013-03-29 11:42:00,52.5,31.3,30.12,WNW,292,1.0,6.0,44,0.00,,,0.00,meteohub,2013-03-29 15:42:00,
2013-03-29 11:52:00,52.9,30.4,30.12,North,0,4.0,5.0,42,0.00,,,0.00,meteohub,2013-03-29 15:52:00,
2013-03-29 11:57:00,53.1,30.6,30.12,NNW,338,4.0,5.0,42,0.00,,,0.00,meteohub,2013-03-29 15:57:00,
2013-03-29 12:02:00,53.8,30.7,30.12,ENE,68,3.0,4.0,41,0.00,,,0.00,meteohub,2013-03-29 16:02:00,
2013-03-29 12:07:00,55.2,31.3,30.12,NW,315,3.0,4.0,40,0.00,,,0.00,meteohub,2013-03-29 16:07:00,
2013-03-29 12:12:00,55.8,31.3,30.12,WSW,248,3.0,6.0,39,0.00,,,0.00,meteohub,2013-03-29 16:12:00,
2013-03-29 12:22:00,56.3,31.1,30.09,NNW,338,3.0,7.0,38,0.00,,,0.00,meteohub,2013-03-29 16:22:00,
2013-03-29 12:27:00,56.7,31.5,30.09,WNW,292,3.0,7.0,38,0.00,,,0.00,meteohub,2013-03-29 16:27:00,
2013-03-29 12:37:00,58.1,32.7,30.09,SW,225,4.0,10.0,38,0.00,,,0.00,meteohub,2013-03-29 16:37:00,
2013-03-29 12:47:00,57.2,30.6,30.09,WNW,292,1.0,6.0,36,0.00,,,0.00,meteohub,2013-03-29 16:47:00,
2013-03-29 12:52:00,56.5,30.6,30.09,NW,315,2.0,6.0,37,0.00,,,0.00,meteohub,2013-03-29 16:52:00,
2013-03-29 13:02:00,58.1,31.3,30.09,WNW,292,2.0,6.0,36,0.00,,,0.00,meteohub,2013-03-29 17:02:00,
2013-03-29 13:17:00,56.7,29.3,30.09,West,270,2.0,8.0,35,0.00,,,0.00,meteohub,2013-03-29 17:17:00,
2013-03-29 13:22:00,57.2,29.8,30.06,NNE,22,4.0,8.0,35,0.00,,,0.00,meteohub,2013-03-29 17:22:00,
2013-03-29 13:32:00,55.9,28.8,30.06,NW,315,2.0,7.0,35,0.00,,,0.00,meteohub,2013-03-29 17:32:00,
2013-03-29 13:37:00,56.3,29.1,30.06,NW,315,1.0,7.0,35,0.00,,,0.00,meteohub,2013-03-29 17:37:00,
2013-03-29 13:42:00,56.5,29.1,30.06,NW,315,2.0,6.0,35,0.00,,,0.00,meteohub,2013-03-29 17:42:00,
2013-03-29 13:52:00,55.4,28.2,30.06,NW,315,2.0,4.0,35,0.00,,,0.00,meteohub,2013-03-29 17:52:00,
2013-03-29 13:57:00,54.7,27.7,30.06,NNW,338,3.0,4.0,35,0.00,,,0.00,meteohub,2013-03-29 17:57:00,
2013-03-29 14:02:00,55.6,28.4,30.06,NE,45,4.0,4.0,35,0.00,,,0.00,meteohub,2013-03-29 18:02:00,
2013-03-29 14:12:00,57.6,30.2,30.09,WNW,292,3.0,6.0,35,0.00,,,0.00,meteohub,2013-03-29 18:12:00,
2013-03-29 14:17:00,57.4,29.3,30.09,WNW,292,5.0,6.0,34,0.00,,,0.00,meteohub,2013-03-29 18:17:00,
2013-03-29 14:22:00,56.5,28.6,30.06,NNW,338,3.0,5.0,34,0.00,,,0.00,meteohub,2013-03-29 18:22:00,
2013-03-29 14:32:00,55.2,28.0,30.06,NNW,338,2.0,5.0,35,0.00,,,0.00,meteohub,2013-03-29 18:32:00,
2013-03-29 14:37:00,56.7,29.3,30.06,SSW,202,3.0,5.0,35,0.00,,,0.00,meteohub,2013-03-29 18:37:00,
2013-03-29 14:47:00,58.8,29.8,30.06,NNW,338,3.0,6.0,33,0.00,,,0.00,meteohub,2013-03-29 18:47:00,
2013-03-29 14:52:00,57.0,28.9,30.06,NNW,338,5.0,6.0,34,0.00,,,0.00,meteohub,2013-03-29 18:52:00,
2013-03-29 15:02:00,55.9,28.0,30.06,NW,315,2.0,6.0,34,0.00,,,0.00,meteohub,2013-03-29 19:02:00,
2013-03-29 15:07:00,56.5,29.1,30.06,South,180,3.0,6.0,35,0.00,,,0.00,meteohub,2013-03-29 19:07:00,
2013-03-29 15:12:00,57.2,29.1,30.06,WNW,292,3.0,5.0,34,0.00,,,0.00,meteohub,2013-03-29 19:12:00,
2013-03-29 15:22:00,57.4,29.3,30.06,SSW,202,4.0,6.0,34,0.00,,,0.00,meteohub,2013-03-29 19:22:00,
2013-03-29 15:32:00,57.6,29.5,30.06,ENE,68,4.0,6.0,34,0.00,,,0.00,meteohub,2013-03-29 19:32:00,
2013-03-29 15:42:00,55.9,28.0,30.06,NW,315,3.0,6.0,34,0.00,,,0.00,meteohub,2013-03-29 19:42:00,
2013-03-29 15:47:00,54.7,27.7,30.06,NNW,338,2.0,6.0,35,0.00,,,0.00,meteohub,2013-03-29 19:47:00,
2013-03-29 15:52:00,54.1,27.1,30.06,NNW,338,3.0,6.0,35,0.00,,,0.00,meteohub,2013-03-29 19:52:00,
2013-03-29 15:57:00,54.0,27.0,30.06,WNW,292,3.0,6.0,35,0.00,,,0.00,meteohub,2013-03-29 19:57:00,
2013-03-29 16:02:00,53.6,26.6,30.06,NNW,338,3.0,6.0,35,0.00,,,0.00,meteohub,2013-03-29 20:02:00,
2013-03-29 16:07:00,53.4,27.1,30.06,NW,315,4.0,6.0,36,0.00,,,0.00,meteohub,2013-03-29 20:07:00,
2013-03-29 16:12:00,53.8,27.5,30.06,NW,315,2.0,5.0,36,0.00,,,0.00,meteohub,2013-03-29 20:12:00,
2013-03-29 16:17:00,54.5,28.2,30.06,NW,315,3.0,5.0,36,0.00,,,0.00,meteohub,2013-03-29 20:17:00,
2013-03-29 16:22:00,55.0,28.6,30.06,WNW,292,3.0,5.0,36,0.00,,,0.00,meteohub,2013-03-29 20:22:00,
2013-03-29 16:32:00,54.5,28.2,30.06,NNW,338,2.0,5.0,36,0.00,,,0.00,meteohub,2013-03-29 20:32:00,
2013-03-29 16:37:00,53.8,27.5,30.06,WNW,292,2.0,5.0,36,0.00,,,0.00,meteohub,2013-03-29 20:37:00,
2013-03-29 16:42:00,53.6,27.3,30.06,WNW,292,4.0,5.0,36,0.00,,,0.00,meteohub,2013-03-29 20:42:00,
2013-03-29 16:47:00,53.1,26.8,30.06,NNW,338,4.0,5.0,36,0.00,,,0.00,meteohub,2013-03-29 20:47:00,
2013-03-29 16:52:00,52.5,26.4,30.06,North,0,6.0,9.0,36,0.00,,,0.00,meteohub,2013-03-29 20:52:00,
2013-03-29 16:57:00,52.3,27.0,30.06,WNW,292,5.0,9.0,37,0.00,,,0.00,meteohub,2013-03-29 20:57:00,
2013-03-29 17:02:00,51.8,26.4,30.06,NNW,338,4.0,9.0,37,0.00,,,0.00,meteohub,2013-03-29 21:02:00,
2013-03-29 17:07:00,51.6,27.0,30.06,WNW,292,3.0,9.0,38,0.00,,,0.00,meteohub,2013-03-29 21:07:00,
2013-03-29 17:12:00,51.8,26.4,30.06,NNW,338,3.0,5.0,37,0.00,,,0.00,meteohub,2013-03-29 21:12:00,
2013-03-29 17:17:00,51.8,26.4,30.06,WNW,292,2.0,5.0,37,0.00,,,0.00,meteohub,2013-03-29 21:17:00,
2013-03-29 17:22:00,52.0,26.6,30.09,NNW,338,6.0,6.0,37,0.00,,,0.00,meteohub,2013-03-29 21:22:00,
2013-03-29 17:27:00,52.2,27.3,30.09,NNW,338,4.0,6.0,38,0.00,,,0.00,meteohub,2013-03-29 21:27:00,
2013-03-29 17:32:00,52.2,27.3,30.09,NW,315,2.0,6.0,38,0.00,,,0.00,meteohub,2013-03-29 21:32:00,
2013-03-29 17:37:00,52.2,27.3,30.06,NW,315,4.0,6.0,38,0.00,,,0.00,meteohub,2013-03-29 21:37:00,
2013-03-29 17:42:00,51.8,27.0,30.06,NNW,338,3.0,6.0,38,0.00,,,0.00,meteohub,2013-03-29 21:42:00,
2013-03-29 17:47:00,51.6,27.0,30.06,NW,315,3.0,6.0,38,0.00,,,0.00,meteohub,2013-03-29 21:47:00,
2013-03-29 17:52:00,51.6,27.0,30.06,NNE,22,4.0,6.0,38,0.00,,,0.00,meteohub,2013-03-29 21:52:00,
2013-03-29 17:57:00,51.4,26.8,30.06,NNW,338,3.0,7.0,38,0.00,,,0.00,meteohub,2013-03-29 21:57:00,
2013-03-29 18:02:00,51.3,26.6,30.06,North,0,1.0,7.0,38,0.00,,,0.00,meteohub,2013-03-29 22:02:00,
2013-03-29 18:07:00,50.9,26.2,30.06,NNW,338,1.0,7.0,38,0.00,,,0.00,meteohub,2013-03-29 22:07:00,
2013-03-29 18:12:00,50.5,25.9,30.06,NNW,338,3.0,4.0,38,0.00,,,0.00,meteohub,2013-03-29 22:12:00,
2013-03-29 18:17:00,50.2,25.5,30.06,NNW,338,3.0,4.0,38,0.00,,,0.00,meteohub,2013-03-29 22:17:00,
2013-03-29 18:27:00,49.8,25.3,30.06,NW,315,0.0,4.0,38,0.00,,,0.00,meteohub,2013-03-29 22:27:00,
2013-03-29 18:32:00,49.8,25.3,30.06,North,0,0.0,3.0,38,0.00,,,0.00,meteohub,2013-03-29 22:32:00,
2013-03-29 18:42:00,49.1,25.3,30.06,WNW,292,0.0,3.0,39,0.00,,,0.00,meteohub,2013-03-29 22:42:00,
2013-03-29 18:47:00,48.7,25.0,30.06,NNE,22,0.0,0.0,39,0.00,,,0.00,meteohub,2013-03-29 22:47:00,
2013-03-29 18:52:00,48.6,24.8,30.06,WSW,248,0.0,0.0,39,0.00,,,0.00,meteohub,2013-03-29 22:52:00,
2013-03-29 18:57:00,48.2,24.4,30.06,North,0,1.0,3.0,39,0.00,,,0.00,meteohub,2013-03-29 22:57:00,
2013-03-29 19:02:00,48.2,24.4,30.06,North,0,1.0,3.0,39,0.00,,,0.00,meteohub,2013-03-29 23:02:00,
2013-03-29 19:12:00,47.7,24.6,30.06,NNW,338,2.0,4.0,40,0.00,,,0.00,meteohub,2013-03-29 23:12:00,
2013-03-29 19:17:00,47.7,24.6,30.06,NW,315,1.0,4.0,40,0.00,,,0.00,meteohub,2013-03-29 23:17:00,
2013-03-29 19:27:00,47.5,24.4,30.06,NW,315,2.0,4.0,40,0.00,,,0.00,meteohub,2013-03-29 23:27:00,
2013-03-29 19:32:00,47.1,24.1,30.06,NNW,338,0.0,4.0,40,0.00,,,0.00,meteohub,2013-03-29 23:32:00,
2013-03-29 19:42:00,46.8,23.7,30.09,West,270,0.0,4.0,40,0.00,,,0.00,meteohub,2013-03-29 23:42:00,
2013-03-29 19:47:00,46.4,23.4,30.09,NNW,338,0.0,2.0,40,0.00,,,0.00,meteohub,2013-03-29 23:47:00,
2013-03-29 19:52:00,46.2,23.9,30.09,NNE,22,2.0,2.0,41,0.00,,,0.00,meteohub,2013-03-29 23:52:00,
2013-03-29 19:57:00,45.9,23.5,30.09,North,0,0.0,2.0,41,0.00,,,0.00,meteohub,2013-03-29 23:57:00,
2013-03-29 20:07:00,45.7,23.4,30.09,NNW,338,2.0,2.0,41,0.00,,,0.00,meteohub,2013-03-30 00:07:00,
2013-03-29 20:12:00,45.5,23.7,30.09,NW,315,2.0,3.0,42,0.00,,,0.00,meteohub,2013-03-30 00:12:00,
2013-03-29 20:17:00,45.3,23.5,30.09,NW,315,2.0,3.0,42,0.00,,,0.00,meteohub,2013-03-30 00:17:00,
2013-03-29 20:22:00,45.3,24.3,30.12,NNW,338,3.0,3.0,43,0.00,,,0.00,meteohub,2013-03-30 00:22:00,
2013-03-29 20:27:00,45.3,24.3,30.12,NNW,338,1.0,4.0,43,0.00,,,0.00,meteohub,2013-03-30 00:27:00,
2013-03-29 20:32:00,45.3,24.8,30.12,NW,315,2.0,4.0,44,0.00,,,0.00,meteohub,2013-03-30 00:32:00,
2013-03-29 20:37:00,45.1,24.6,30.12,NNW,338,1.0,3.0,44,0.00,,,0.00,meteohub,2013-03-30 00:37:00,
2013-03-29 20:47:00,44.4,24.4,30.12,North,0,0.0,2.0,45,0.00,,,0.00,meteohub,2013-03-30 00:47:00,
2013-03-29 20:52:00,44.4,24.4,30.12,NW,315,0.0,2.0,45,0.00,,,0.00,meteohub,2013-03-30 00:52:00,
2013-03-29 21:02:00,44.1,24.1,30.12,ENE,68,0.0,2.0,45,0.00,,,0.00,meteohub,2013-03-30 01:02:00,
2013-03-29 21:12:00,43.9,24.4,30.12,WSW,248,0.0,2.0,46,0.00,,,0.00,meteohub,2013-03-30 01:12:00,
2013-03-29 21:17:00,43.5,24.1,30.12,NNW,338,0.0,0.0,46,0.00,,,0.00,meteohub,2013-03-30 01:17:00,
2013-03-29 21:22:00,43.3,24.4,30.12,NW,315,0.0,1.0,47,0.00,,,0.00,meteohub,2013-03-30 01:22:00,
2013-03-29 21:27:00,43.3,24.4,30.12,North,0,0.0,1.0,47,0.00,,,0.00,meteohub,2013-03-30 01:27:00,
2013-03-29 21:37:00,43.3,25.0,30.12,North,0,0.0,3.0,48,0.00,,,0.00,meteohub,2013-03-30 01:37:00,
2013-03-29 21:42:00,43.2,24.8,30.12,NNW,338,2.0,2.0,48,0.00,,,0.00,meteohub,2013-03-30 01:42:00,
2013-03-29 21:52:00,43.2,25.3,30.12,NE,45,0.0,3.0,49,0.00,,,0.00,meteohub,2013-03-30 01:52:00,
2013-03-29 21:57:00,43.2,25.3,30.12,East,90,0.0,2.0,49,0.00,,,0.00,meteohub,2013-03-30 01:57:00,
2013-03-29 22:07:00,42.8,25.0,30.12,SW,225,0.0,2.0,49,0.00,,,0.00,meteohub,2013-03-30 02:07:00,
2013-03-29 22:12:00,42.8,25.0,30.12,SSW,202,0.0,2.0,49,0.00,,,0.00,meteohub,2013-03-30 02:12:00,
2013-03-29 22:22:00,42.6,25.3,30.09,WSW,248,0.0,0.0,50,0.00,,,0.00,meteohub,2013-03-30 02:22:00,
2013-03-29 22:27:00,42.6,25.3,30.09,SSW,202,0.0,0.0,50,0.00,,,0.00,meteohub,2013-03-30 02:27:00,
2013-03-29 22:32:00,42.4,25.2,30.09,SSW,202,0.0,0.0,50,0.00,,,0.00,meteohub,2013-03-30 02:32:00,
2013-03-29 22:42:00,42.3,25.5,30.12,ENE,68,0.0,0.0,51,0.00,,,0.00,meteohub,2013-03-30 02:42:00,
2013-03-29 22:47:00,42.3,25.5,30.12,NW,315,0.0,0.0,51,0.00,,,0.00,meteohub,2013-03-30 02:47:00,
2013-03-29 22:52:00,42.3,25.5,30.09,NW,315,2.0,2.0,51,0.00,,,0.00,meteohub,2013-03-30 02:52:00,
2013-03-29 22:57:00,42.3,25.5,30.09,NW,315,2.0,3.0,51,0.00,,,0.00,meteohub,2013-03-30 02:57:00,
2013-03-29 23:02:00,42.3,25.9,30.09,NW,315,1.0,3.0,52,0.00,,,0.00,meteohub,2013-03-30 03:02:00,
2013-03-29 23:07:00,42.3,26.4,30.09,NNW,338,1.0,3.0,53,0.00,,,0.00,meteohub,2013-03-30 03:07:00,
2013-03-29 23:12:00,42.4,27.0,30.09,NW,315,2.0,3.0,54,0.00,,,0.00,meteohub,2013-03-30 03:12:00,
2013-03-29 23:17:00,42.4,27.0,30.09,NNW,338,1.0,3.0,54,0.00,,,0.00,meteohub,2013-03-30 03:17:00,
2013-03-29 23:22:00,42.4,27.0,30.12,NW,315,1.0,3.0,54,0.00,,,0.00,meteohub,2013-03-30 03:22:00,
2013-03-29 23:27:00,42.4,27.0,30.12,NNW,338,1.0,4.0,54,0.00,,,0.00,meteohub,2013-03-30 03:27:00,
2013-03-29 23:32:00,42.4,26.6,30.12,North,0,0.0,4.0,53,0.00,,,0.00,meteohub,2013-03-30 03:32:00,
2013-03-29 23:42:00,42.4,26.6,30.09,NNW,338,0.0,3.0,53,0.00,,,0.00,meteohub,2013-03-30 03:42:00,
2013-03-29 23:47:00,42.3,26.4,30.09,WNW,292,0.0,2.0,53,0.00,,,0.00,meteohub,2013-03-30 03:47:00,
2013-03-29 23:52:00,42.3,26.4,30.12,WNW,292,0.0,2.0,53,0.00,,,0.00,meteohub,2013-03-30 03:52:00,
2013-03-29 23:57:00,42.3,26.4,30.12,WNW,292,0.0,2.0,53,0.00,,,0.00,meteohub,2013-03-30 03:57:00,